Location: Stonelick Lake State Park
(39.2170°N, 84.0850°W)
Time: 20:18:28
(UTC-04:00)

Daily predictions for brighter satellites

Satellite Brightness Start Highest point End
(mag) Time Altitude Azimuth Time Altitude Azimuth Time Altitude Azimuth
Cosmos 1782 4.3 21:21:33 10° NNE 21:24:40 21° ENE 21:27:47 10° SE
Cosmos 1939 Rocket 3.9 21:21:38 10° SE 21:24:57 28° ENE 21:28:19 10° NNE
Okean 1-7 3.2 21:22:54 10° N 21:27:13 80° W 21:31:31 10° S
In-Cosmos 22 Rocket 4.4 21:22:45 10° S 21:28:36 89° W 21:34:26 10° N
NOSS 2-2 (E) 3.6 21:27:28 10° SSW 21:31:29 56° ESE 21:36:04 10° NE
Cosmos 1461 3.6 21:27:23 10° SW 21:32:03 67° WNW 21:36:37 10° NNE
SPOT 5 4.2 21:29:24 10° SE 21:33:49 29° ENE 21:38:21 10° N
ALOS 3.0 21:29:33 10° S 21:34:08 55° W 21:38:44 10° NNW
Meteor 2-10 Rocket 3.9 21:28:24 10° N 21:34:10 59° ENE 21:39:46 10° SSE
ERBS 3.4 21:31:59 10° NNW 21:35:13 35° NE 21:38:23 10° ESE
Cosmos 1674 Rocket 4.4 21:33:45 10° NNE 21:37:48 33° ENE 21:41:48 10° SE
Cosmos 1606 4.5 21:36:07 10° NNE 21:38:52 18° ENE 21:41:22 11° ESE
Cosmos 1892 2.6 21:41:17 10° S 21:45:05 76° E 21:48:56 10° N
H-2A R/B 4.2 21:44:18 10° SSW 21:47:44 36° W 21:51:12 10° NNW
ERS-1 Rocket 3.0 21:43:31 10° SSE 21:48:33 80° ENE 21:53:36 10° N
Cosmos 909 Rocket 4.3 21:43:47 10° SSW 21:50:12 84° ESE 21:57:53 10° NNE
OPS 6432 4.2 21:47:02 10° SSW 21:50:37 67° ESE 21:53:44 10° NE
Cosmos 1190 Rocket 4.4 21:47:26 10° N 21:52:27 47° ENE 21:56:41 14° SE
PSLV R/B 3.3 21:52:37 10° WNW 21:56:04 89° N 21:58:46 16° ESE
Meteor 2-6 Rocket 4.5 21:51:43 10° N 21:57:35 58° ENE 22:03:01 12° SSE
Coronas F rocket 2.1 21:58:38 10° SSW 22:01:13 50° W 22:03:49 10° N
Abrixas rocket 3.3 21:58:37 10° WNW 22:01:48 37° SW 22:04:01 17° SSE
CZ-4 DEB 4.2 21:59:10 10° SSW 22:02:07 36° W 22:05:05 10° NNW
Cosmos 2154 Rocket 4.2 22:00:14 10° SSE 22:06:12 50° E 22:12:10 10° NNE
USA 234 3.9 22:01:53 10° ENE 22:07:25 29° SE 22:12:54 10° S
BREEZE-M DEB (TANK) 4.1 22:07:06 10° W 22:09:29 37° NNW 22:14:25 10° NE
deb Chang Zheng 4 3.6 22:05:43 10° NNE 22:10:08 90° WNW 22:14:34 10° SSW
CZ-4B R/B 4.2 22:07:03 10° NE 22:11:26 31° E 22:14:00 19° SE
SL-8 R/B 4.1 22:06:41 10° WSW 22:11:29 68° NNW 22:16:17 10° NE
MetOp-B 4.4 22:07:40 17° SE 22:11:40 52° ENE 22:16:51 10° N
Cosmos 2184 Rocket 4.3 22:07:07 10° SSW 22:13:14 71° W 22:19:25 10° N
Cosmos 1908 Rocket 3.7 22:10:37 13° S 22:14:26 54° E 22:18:46 10° NNE
COSMOS 2406 3.3 22:09:52 10° NNW 22:15:38 80° WSW 22:20:20 16° SSE
Cosmos 1733 Rocket 3.8 22:15:13 10° SSW 22:19:33 55° W 22:23:53 10° N
USA 245 3.9 22:19:18 25° E 22:20:06 28° ENE 22:23:13 10° N
Cosmos 1378 Rocket 3.8 22:18:02 10° N 22:22:13 48° E 22:24:19 26° SE
Cosmos 676 Rocket 4.3 22:17:20 10° N 22:22:25 52° ENE 22:25:21 24° SE
ARGOS 3.8 22:19:51 21° SE 22:22:50 39° ENE 22:27:47 10° N
Cosmos 2056 Rocket 4.1 22:18:40 10° SSW 22:23:46 59° WNW 22:28:50 10° N
EO 1 Delta rocket 4.3 22:17:24 10° N 22:23:54 90° E 22:29:02 10° S
ATLAS 5 CENTAUR R/B 2.6 22:18:08 10° NW 22:24:11 73° WSW 22:28:52 20° SSE
Cosmos 1184 Rocket 3.6 22:24:37 31° ESE 22:24:58 32° E 22:27:59 10° NNE
CZ-3C R/B 4.0 22:07:19 10° SW 22:26:30 22° SSW 22:30:49 16° SSE
MINOTAUR IV R/B 4.5 22:24:00 10° SSW 22:28:28 87° ESE 22:32:57 10° NNE
Cosmos 1174 4.1 22:25:56 10° NNW 22:28:58 34° NE 22:29:36 30° E
Cosmos 1954 Rocket 4.4 22:24:22 10° N 22:29:23 46° ENE 22:31:54 26° SE
Cosmos 1862 3.3 22:28:46 20° S 22:31:28 71° E 22:35:32 10° NNE
Cosmos 2278 Rocket 2.4 22:27:20 10° S 22:32:46 51° ESE 22:38:15 10° NNE
Cosmos 1844 3.7 22:30:01 10° SSW 22:35:45 83° ESE 22:41:35 10° NNE
CENTAUR R/B 3.7 22:30:03 10° NW 22:37:42 53° WSW 22:44:20 16° S
Cosmos 1825 2.0 22:37:57 29° S 22:39:47 77° E 22:43:37 10° N
Cosmos 2084 3.2 22:37:52 22° S 22:40:08 53° ESE 22:43:54 10° NE
SL-27 R/B 3.4 22:37:27 10° NNW 22:40:58 45° WSW 22:42:44 24° SSW
Cosmos 1844 Rocket 3.2 22:38:10 10° SW 22:43:46 63° WNW 22:49:22 10° NNE
COSMOS 2487 3.0 22:40:53 10° N 22:44:20 42° ENE 22:44:48 39° E
H-2A R/B 3.3 22:41:12 13° SSW 22:44:47 37° W 22:48:47 10° NNW
COS B Rocket 3.7 22:40:44 10° N 22:44:53 62° W 22:47:18 21° SSW
APEX 4.4 22:50:10 28° E 22:50:10 28° E 22:53:26 10° NE
CZ-4 SHROUD 3.9 22:50:16 38° SW 22:51:02 48° W 22:54:03 10° NNW
CZ-4C R/B 4.1 22:51:49 33° E 22:52:09 33° ENE 22:55:46 10° N
YAOGAN 6 2.8 22:51:59 39° SSW 22:53:04 60° W 22:56:33 10° NNW
Cosmos 2082 Rocket 3.5 22:48:30 10° N 22:53:19 27° ENE 22:55:25 22° E
Cosmos 1408 2.8 22:52:39 30° SSW 22:54:20 67° W 22:57:59 10° N
Meteor 1-27 Rocket 4.1 22:51:50 10° NNW 22:57:19 61° W 23:00:52 22° SSW
Cosmos 2218 Rocket 4.2 22:59:14 34° SSE 23:01:50 54° E 23:08:03 10° NNE
Nadezhda 3 Rocket 4.4 22:57:32 10° NNW 23:03:48 62° W 23:08:16 20° SSW
Cosmos 1023 Rocket 4.5 22:59:06 10° NNW 23:04:11 64° ENE 23:05:34 45° SE
Cosmos 2297 4.0 23:02:58 40° SE 23:04:15 46° ESE 23:09:42 10° NE
Okean 2 Rocket 3.0 23:02:50 37° S 23:04:32 85° W 23:08:59 10° N
Landsat 7 4.0 23:05:01 46° ESE 23:06:05 58° ENE 23:10:46 10° N
H-2A R/B 2.4 23:05:40 40° ESE 23:07:12 52° ENE 23:12:24 10° N
Cosmos 1238 Rocket 3.4 23:07:05 10° NNW 23:10:05 42° W 23:10:42 37° WSW
DELTA 2 DEB (DPAF) 4.2 23:09:30 54° ESE 23:10:12 62° ENE 23:14:37 10° N
Cosmos 1242 Rocket 2.4 23:07:03 10° N 23:10:41 82° ENE 23:10:41 82° ENE
Cosmos 1420 Rocket 3.9 23:09:00 32° S 23:11:31 82° ESE 23:16:46 10° NNE
Atlas Centaur 2 3.5 23:08:47 10° SW 23:09:16 12° SW 23:09:16 12° SW
SPOT 5 4.4 23:08:05 16° SSW 23:11:42 35° W 23:16:34 10° NNW
ERBS 4.4 23:09:19 10° WNW 23:11:50 19° WSW 23:11:51 19° WSW
NOAA 11 4.3 23:14:14 36° S 23:16:30 70° WSW 23:22:00 10° NNW
Cosmos 1727 Rocket 4.2 23:14:16 10° N 23:20:17 52° E 23:21:45 43° ESE
Terra 1.9 23:21:17 55° ESE 23:21:50 59° ENE 23:26:31 10° N
Spot 4 4.3 23:21:25 43° E 23:21:54 44° ENE 23:26:31 10° N
SPOT 1/Viking Rocket 4.2 23:20:10 31° SSW 23:22:21 50° W 23:27:26 10° NNW
IGS 5A 3.7 23:25:17 54° ENE 23:25:17 54° ENE 23:29:12 10° N
Cosmos 1959 Rocket 4.3 23:22:50 40° S 23:25:12 83° E 23:31:20 10° N
ASTEX 1 4.2 23:21:38 10° NNE 23:25:46 35° E 23:25:46 35° E
Timation 2 Rocket 3.7 23:27:36 10° NNW 23:33:38 90° WSW 23:35:01 56° SSE
Cosmos 614 Rocket 3.8 23:28:49 10° NNW 23:33:55 78° ENE 23:34:27 69° SE
Cosmos 1140 Rocket 3.6 23:31:59 10° NNW 23:37:04 63° WSW 23:37:56 54° SSW
DNEPR-1 R/B 3.6 23:35:38 10° NNW 23:40:59 90° SSE 23:41:08 84° SSE
Meteor 1-20 Rocket 4.1 23:43:42 62° ESE 23:44:02 63° E 23:49:32 10° NNE
CARTOSAT-1 3.6 23:44:46 73° W 23:44:46 73° W 23:48:56 10° NNW
SL-8 Rocket 4.5 23:41:37 27° SSW 23:45:03 57° W 23:51:13 10° N
Meteor 1-25 Rocket 4.2 23:47:59 64° S 23:48:56 83° E 23:54:48 10° N
Cosmos 1339 Rocket 4.4 23:43:01 10° N 23:49:09 74° E 23:50:09 62° SE
USA 234 3.4 23:44:12 10° NE 23:50:43 74° NW 23:57:13 10° WSW
